Theta_e
351 349 352 352 352 353 352 352 351 351 351 351 352 352 352 352 352 352 353 352 350 350 351 350 350 350 351 350 350 348 347 347 347 349 347 339 338 339 339 342 344 346 348 349 347 346 346 346 346 347 346 345 345 346 345 345 344 342 341 341 342 342 342 343 343 343 342 342 341 341 340 339 339 338 338 337 337 337 338 338 338 339 340 340 339
352 351 351 352 353 352 352 351 350 351 351 352 352 353 353 353 353 352 353 353 352 351 352 352 350 349 351 350 349 348 347 346 346 348 344 337 337 339 340 342 344 345 346 348 347 346 346 347 347 347 346 345 346 345 345 344 344 344 343 342 341 342 342 342 342 343 343 342 342 343 342 341 340 339 338 339 340 341 342 342 341 341 341 341 340
352 352 352 352 353 352 352 351 350 351 351 352 352 353 353 354 354 354 354 353 352 353 352 351 350 349 351 349 347 347 347 345 346 346 341 335 337 338 340 343 345 345 345 347 347 347 347 346 347 347 346 345 346 346 345 345 344 344 344 343 343 342 341 341 341 342 343 342 343 343 343 341 341 341 341 341 342 342 343 343 342 342 341 341 341
352 352 352 352 352 352 352 351 352 353 351 353 352 353 354 354 355 355 354 353 353 353 351 350 349 349 351 349 346 347 346 343 344 343 337 337 337 338 340 343 345 347 347 348 347 347 348 347 347 348 348 347 346 347 347 346 345 344 344 343 344 344 343 341 340 341 342 342 343 343 343 342 343 342 342 342 341 342 342 342 342 342 341 341 341
352 352 352 352 352 352 352 352 353 352 353 354 354 354 354 354 354 354 353 353 352 351 350 349 349 349 350 350 347 346 345 343 344 341 337 338 338 339 339 341 343 345 346 347 348 347 347 348 348 348 348 347 348 348 347 346 346 345 344 344 344 345 344 343 342 342 342 342 342 343 343 343 343 342 342 341 341 342 342 342 342 341 341 341 341
352 352 352 352 353 353 353 352 353 353 353 355 354 354 354 353 353 354 354 352 350 350 349 348 347 346 347 347 348 347 345 343 343 340 337 338 339 340 340 339 341 342 343 344 345 346 347 347 347 347 348 347 348 349 348 348 347 346 344 344 345 346 346 344 344 343 343 343 342 343 343 343 343 342 341 342 341 342 342 342 341 342 341 341 341
352 352 352 353 354 354 354 353 353 354 355 355 354 354 354 354 353 353 354 351 348 348 347 347 345 342 340 342 344 346 345 343 343 342 340 340 340 341 340 340 340 340 340 341 342 342 345 347 347 347 346 347 348 348 348 348 348 347 345 344 345 346 346 345 344 344 344 344 344 343 343 343 343 343 342 342 342 342 343 342 341 341 341 341 341
354 353 354 354 354 354 354 353 354 354 355 356 355 354 354 354 353 353 352 350 349 347 346 346 344 340 340 340 342 344 344 343 344 344 343 342 342 343 342 342 341 341 341 340 340 340 341 344 346 347 347 347 347 347 347 348 348 348 347 346 345 346 346 346 345 344 344 344 344 343 343 344 343 343 343 342 343 342 342 341 341 341 341 341 341
356 354 354 354 354 354 354 354 355 354 355 355 354 354 354 354 353 353 352 350 349 346 346 346 343 341 342 342 342 344 344 344 345 345 345 344 344 344 344 345 344 344 343 340 338 337 337 340 344 345 346 346 347 347 347 347 348 347 347 346 345 346 346 346 345 344 344 344 344 343 343 343 343 343 343 343 343 342 342 342 342 341 341 341 341
355 356 355 354 354 353 354 355 355 355 355 355 355 355 355 355 354 352 351 349 346 342 343 344 341 342 344 343 344 344 344 345 345 346 346 346 346 346 347 347 347 347 345 339 337 335 335 338 343 344 345 346 346 347 347 347 347 347 347 346 346 346 346 345 345 345 345 344 344 344 343 344 344 344 344 344 343 343 343 342 342 341 341 340 340
353 355 354 353 353 353 355 355 355 356 355 355 356 356 355 354 355 352 349 350 344 339 340 341 340 342 344 344 346 346 345 346 346 347 347 347 347 347 347 347 347 349 347 343 340 338 336 337 342 342 343 345 346 346 347 346 346 346 348 348 347 347 347 345 345 345 345 344 345 344 344 344 344 344 344 344 344 343 342 343 342 342 341 341 341
351 352 351 352 353 353 355 355 355 355 355 355 354 355 355 354 354 351 348 349 346 340 339 340 340 342 342 343 345 346 347 346 347 346 346 348 348 347 347 347 347 348 348 347 346 345 341 337 339 342 342 344 346 346 346 346 346 346 346 347 347 347 347 346 346 346 345 345 344 344 344 344 344 344 344 344 343 342 343 343 342 342 342 342 341
349 348 347 351 353 354 355 355 355 355 355 354 354 355 356 355 353 351 349 349 347 342 337 338 340 341 342 342 343 345 346 346 346 346 346 347 347 348 347 348 348 348 349 349 349 349 345 340 338 340 342 343 344 346 346 346 346 346 346 346 346 346 346 346 346 346 345 345 345 344 344 343 343 344 343 344 343 343 342 342 342 342 341 340 340
349 345 344 348 353 354 355 355 354 356 356 356 356 355 355 354 352 350 349 347 346 343 337 336 337 339 340 338 338 342 343 345 346 345 346 346 346 347 347 348 348 348 349 349 348 348 348 345 342 341 341 341 342 343 345 346 345 345 345 345 345 346 346 346 346 345 346 344 344 345 345 343 343 343 343 343 343 342 342 342 341 338 335 337 339
351 347 344 345 352 354 355 354 354 355 356 357 357 356 356 355 351 349 349 347 346 344 339 337 335 338 339 338 339 343 342 341 344 345 345 345 345 345 346 346 347 348 349 348 347 347 347 347 346 344 342 340 341 341 342 343 343 344 344 344 345 346 346 346 345 346 345 345 345 345 345 343 343 343 343 343 342 341 340 336 331 325 324 329 331
353 351 345 341 348 354 353 354 355 355 356 357 358 357 357 356 352 350 349 348 346 343 342 339 337 337 340 343 340 342 347 342 340 343 344 345 345 344 345 344 345 348 348 346 346 346 346 346 346 346 343 342 342 341 342 342 342 343 344 343 344 344 345 346 346 346 345 345 345 345 345 344 343 343 343 340 335 331 328 322 317 316 317 318 318
352 352 348 339 343 351 353 355 356 356 356 357 358 356 356 355 352 351 350 349 346 342 343 341 338 337 341 346 341 342 353 348 338 341 343 345 345 344 344 344 345 346 345 345 345 343 343 344 345 345 344 344 343 343 342 342 340 341 343 344 343 342 342 343 344 344 344 345 345 345 344 341 338 335 332 326 320 318 317 315 316 316 316 316 316
352 352 351 343 340 346 353 355 356 356 355 357 358 356 356 354 352 352 350 350 348 344 341 340 339 338 340 345 344 345 350 345 344 347 343 342 344 344 344 343 344 345 344 345 345 342 340 338 340 342 343 343 344 344 343 340 334 334 338 341 341 340 340 338 337 339 342 342 339 336 332 327 324 320 318 317 315 316 316 316 316 316 317 318 320
353 352 352 348 343 345 350 354 354 353 353 355 356 355 355 353 351 352 350 350 351 346 341 339 339 339 341 343 342 345 344 340 346 350 346 343 341 340 342 341 342 344 344 345 344 341 339 335 335 339 340 341 343 344 343 341 336 329 328 330 332 333 333 330 328 330 333 330 324 320 317 316 317 316 316 316 316 317 317 318 320 321 323 323 324
353 353 353 351 348 347 349 351 352 352 352 354 354 353 354 354 351 351 349 350 352 347 340 338 338 338 340 342 342 344 343 340 342 345 348 351 345 341 341 338 339 341 341 343 342 340 338 336 336 338 338 340 340 339 339 338 337 331 322 319 321 324 324 320 319 320 319 318 317 318 319 320 320 321 321 321 321 322 323 324 325 326 327 327 328
353 353 353 352 351 351 350 351 352 352 354 356 357 355 354 354 352 352 351 351 352 347 340 338 337 335 338 341 341 342 342 341 341 340 345 350 349 345 342 339 339 339 339 341 340 339 338 338 339 337 338 339 337 335 335 332 328 325 320 317 317 317 317 317 315 316 317 318 320 322 323 324 325 325 325 326 326 327 327 328 328 328 328 329 329
354 353 354 353 353 354 353 352 352 354 356 358 359 357 355 354 354 353 352 352 352 348 343 341 339 334 336 340 341 341 342 342 341 341 341 343 346 345 341 340 341 340 339 339 339 339 338 338 339 338 338 338 335 334 336 330 323 321 321 319 318 318 317 317 317 318 321 323 325 325 326 326 326 327 327 327 327 328 328 329 329 329 329 329 329
354 354 354 354 354 355 354 354 354 354 356 358 359 359 356 355 355 354 353 353 352 349 346 344 342 336 335 339 342 340 341 343 342 341 341 341 344 345 341 341 341 339 339 339 338 338 338 338 339 338 337 337 335 335 335 332 327 325 324 323 322 321 321 321 321 323 325 325 326 326 327 327 327 327 327 328 329 329 329 329 329 330 329 330 329
354 355 355 355 356 356 356 356 356 354 355 357 359 359 358 356 355 355 354 353 354 351 347 344 342 339 335 338 341 340 339 342 342 341 340 341 344 344 341 341 342 341 339 339 339 338 338 338 338 338 337 337 337 336 335 334 332 329 327 326 326 325 325 326 326 326 327 327 327 327 327 328 328 328 328 329 329 329 329 329 330 329 329 329 329
355 355 355 356 356 357 356 356 356 355 354 356 359 359 358 358 357 356 356 353 353 353 349 345 342 340 337 336 339 340 339 341 343 342 341 340 342 342 342 342 342 341 340 339 338 338 338 338 338 338 337 336 336 337 335 335 335 334 331 330 329 328 328 328 328 328 328 328 328 328 328 328 328 329 329 329 329 329 329 330 329 329 329 329 329
356 354 354 356 356 357 357 356 356 355 354 355 358 360 360 359 358 357 357 355 354 354 351 347 343 343 342 340 339 339 339 340 341 341 340 340 342 342 342 343 341 338 338 339 336 336 338 338 338 338 338 336 336 336 337 336 336 336 336 334 332 331 331 330 329 328 329 328 328 328 329 328 329 329 329 329 329 329 329 329 329 329 329 329 328
354 354 354 356 356 357 357 356 356 356 355 355 357 360 360 359 359 358 358 357 356 356 353 348 344 344 344 344 342 340 339 339 339 341 342 341 343 342 342 344 344 340 338 338 337 335 336 336 337 338 338 336 336 336 336 335 335 336 336 336 335 334 335 333 332 331 330 330 330 331 331 330 329 329 329 329 329 329 329 329 329 329 329 327 325
354 354 355 355 355 356 357 356 356 356 356 356 356 358 360 360 359 359 358 358 357 356 355 352 347 345 344 345 343 341 340 339 338 339 342 342 342 341 340 342 346 347 345 343 340 337 335 335 336 337 337 335 335 336 337 336 335 336 337 337 336 336 337 336 335 334 332 332 333 333 333 331 331 329 329 329 328 329 329 329 329 329 327 325 322
354 354 355 355 355 355 355 357 356 356 356 357 356 357 360 360 359 359 358 358 358 358 356 354 351 347 344 344 344 341 338 337 338 338 340 341 340 339 340 339 342 348 351 351 345 337 336 336 336 336 336 335 335 335 336 336 336 336 336 337 337 337 337 337 337 336 334 334 335 335 334 333 332 331 330 329 329 329 329 329 329 328 325 323 322
354 354 354 354 355 355 355 356 357 357 357 357 357 357 360 361 359 359 359 358 359 359 357 356 355 352 346 343 344 343 338 336 337 339 340 341 340 339 339 338 338 342 344 348 348 339 337 338 337 337 337 336 336 336 336 336 336 336 336 337 337 337 337 337 338 337 336 335 335 335 336 335 335 333 332 331 330 330 329 329 328 326 325 324 322
356 355 355 355 356 356 356 357 357 357 357 357 357 358 360 361 359 358 359 359 359 359 358 357 356 354 350 345 342 343 341 339 337 339 341 342 343 341 341 339 338 338 338 341 346 341 337 338 338 338 338 336 336 336 336 336 336 336 336 337 337 337 337 337 337 337 336 335 336 336 336 336 335 335 333 332 331 330 329 328 327 326 326 325 323
357 356 356 356 356 357 357 357 357 358 359 358 358 359 360 360 359 357 357 359 359 358 358 357 356 356 354 350 345 341 340 341 341 341 341 343 344 344 342 340 338 339 338 337 341 341 338 339 338 338 339 338 336 336 336 336 336 336 336 337 337 337 337 337 337 337 337 336 337 337 337 337 336 336 334 332 330 329 328 327 327 327 327 325 322
357 357 358 357 356 357 357 358 358 358 359 359 358 358 360 360 359 357 357 358 359 359 358 358 356 356 355 353 351 345 340 339 341 343 343 344 344 344 344 342 339 339 340 338 339 339 339 339 339 339 339 339 338 337 336 336 336 336 336 337 337 337 337 337 337 337 337 337 337 337 337 337 337 336 335 334 330 327 326 327 328 329 329 326 323
356 356 357 358 358 358 358 358 359 358 358 360 360 360 359 360 359 357 357 358 359 359 358 358 357 356 356 354 353 351 347 341 338 340 343 344 344 343 344 343 341 340 341 340 340 340 340 340 340 340 341 340 339 339 337 337 336 336 336 336 337 337 337 337 337 337 337 337 337 337 336 337 336 337 336 334 330 327 327 329 330 330 330 329 325
357 356 356 357 358 359 358 359 359 358 359 359 359 360 359 359 359 358 358 358 358 359 358 358 358 357 357 356 354 352 351 348 343 339 340 342 343 344 344 343 342 341 340 341 341 341 341 340 339 340 340 342 341 339 338 338 337 337 337 337 337 337 337 337 336 336 337 337 337 337 335 334 336 337 335 333 330 330 331 331 331 331 331 332 329
358 357 357 357 358 358 359 359 359 359 359 359 359 360 359 359 359 358 358 358 358 359 358 358 358 357 357 356 355 353 352 351 349 345 342 340 340 341 342 343 343 343 342 341 341 341 340 340 340 339 339 341 342 341 340 339 338 337 337 336 336 337 337 337 337 337 337 337 337 337 335 334 334 335 334 332 332 334 334 333 333 332 333 333 331
359 358 358 358 358 359 358 359 359 359 359 359 359 360 360 359 359 358 358 359 358 358 358 357 357 357 356 355 354 353 353 352 351 349 347 344 340 340 340 340 342 344 343 343 342 342 342 341 341 340 339 339 340 342 342 340 338 337 337 337 337 338 338 338 338 337 338 338 338 339 338 336 335 335 335 335 335 335 335 335 334 334 334 334 332
358 359 360 359 359 359 359 358 358 359 359 359 359 360 360 360 360 359 359 358 358 358 358 358 358 357 357 356 354 353 353 352 351 350 349 348 345 343 341 339 339 341 344 344 343 342 342 341 341 340 340 339 339 340 341 341 340 338 338 339 338 339 340 339 338 338 338 339 339 339 339 338 336 336 337 337 336 336 335 336 335 335 335 335 333
356 358 360 360 360 360 360 360 360 359 359 359 359 359 360 360 360 360 360 359 359 359 358 358 358 358 358 356 355 354 353 352 351 350 349 348 347 347 344 341 339 339 342 344 344 343 343 342 342 341 341 340 339 339 339 340 341 340 340 340 340 340 340 340 339 339 339 339 339 339 340 339 338 338 338 337 337 336 336 336 336 336 336 335 333
355 356 357 359 360 359 360 359 360 360 359 360 359 360 360 360 360 361 361 361 360 360 360 360 359 359 358 357 356 356 354 353 351 350 349 348 348 347 346 345 342 341 341 342 343 343 343 342 342 341 341 341 341 340 339 340 342 342 342 342 342 341 341 340 340 339 339 339 339 340 340 340 339 338 339 338 337 337 336 336 336 336 336 336 334
355 355 355 357 359 360 360 359 359 359 359 359 359 359 360 360 361 360 361 361 361 361 360 360 359 359 359 359 357 356 355 354 353 352 350 350 349 348 347 346 345 344 341 342 342 342 343 342 342 342 341 341 341 341 341 341 341 341 341 341 341 341 340 340 340 340 339 340 340 340 340 339 339 339 339 339 338 338 337 337 337 337 337 336 334
356 355 355 355 357 358 359 359 358 359 359 360 359 359 359 359 360 360 361 361 361 361 361 360 360 359 359 359 358 357 356 355 354 353 352 351 350 349 348 346 345 345 343 343 343 342 342 342 342 342 341 341 341 341 341 341 341 341 341 341 340 340 340 340 341 340 340 340 340 341 340 339 339 340 339 339 339 338 337 337 337 337 337 336 335
356 356 356 355 356 356 358 358 358 358 358 359 359 359 359 359 360 360 361 361 361 361 361 360 360 359 359 359 359 358 358 357 356 355 354 353 352 351 350 349 348 346 345 344 344 342 342 342 342 342 342 341 341 341 341 341 341 341 341 341 341 340 340 340 339 340 340 341 341 341 340 340 339 339 340 339 339 339 339 338 338 338 337 337 336
357 357 357 356 355 356 357 357 359 358 358 358 357 358 359 359 360 360 360 361 361 361 361 361 360 359 359 359 359 358 358 357 357 356 356 355 354 353 353 351 350 349 348 346 345 344 343 342 342 342 342 342 342 341 342 341 341 341 342 342 341 341 340 340 339 340 340 340 340 341 341 340 339 339 339 339 339 339 339 339 338 339 338 337 335
357 357 357 357 356 357 357 357 358 358 358 358 358 358 358 358 360 361 361 361 361 361 361 361 361 360 360 359 359 358 358 358 358 357 357 356 355 355 355 354 353 351 350 349 348 346 345 343 343 342 342 342 342 342 342 341 341 341 341 342 342 341 341 340 340 340 340 340 341 340 341 340 340 339 339 340 340 340 340 340 340 340 339 337 334
356 356 357 357 357 357 356 357 357 358 358 358 358 359 358 358 359 360 361 362 361 361 361 361 361 361 361 360 360 359 358 358 358 358 358 357 356 355 355 354 353 352 352 351 350 349 346 345 344 343 342 342 342 341 341 341 341 341 341 341 341 341 341 340 340 340 340 340 341 341 340 340 340 340 340 340 340 340 340 340 340 340 340 337 333
356 356 357 357 357 357 356 356 357 357 357 357 358 358 358 359 359 359 360 361 361 361 361 361 361 361 361 361 361 360 360 359 359 358 358 358 357 356 355 354 354 353 352 352 351 350 349 348 346 345 344 344 343 342 341 341 341 341 341 340 340 340 341 341 341 341 340 341 340 341 341 340 340 341 340 340 340 341 340 340 340 341 339 336 333
356 356 356 357 357 357 358 357 356 356 356 357 358 358 359 359 360 361 361 361 361 361 361 361 361 361 362 362 361 361 360 360 359 358 358 358 357 357 356 355 354 354 353 354 352 351 351 350 349 348 347 346 344 343 342 341 341 340 341 341 340 340 340 341 341 341 341 341 341 341 341 341 341 341 341 341 341 340 340 340 340 341 339 336 333
357 356 357 357 357 358 359 358 357 357 357 357 358 359 359 360 360 361 361 361 361 361 361 361 361 361 361 361 361 361 361 361 361 360 359 359 358 357 357 356 355 354 355 354 353 352 352 351 351 350 350 348 347 345 344 343 342 341 341 341 341 341 341 341 340 341 341 341 342 342 341 341 341 341 341 341 341 340 340 340 340 340 339 336 332
357 357 357 357 357 358 359 359 359 359 359 358 359 360 361 361 361 362 361 361 361 360 361 361 361 362 361 361 362 361 361 361 361 360 360 359 359 358 358 357 356 356 356 355 354 353 353 352 352 351 351 350 349 347 345 344 343 342 341 341 341 341 341 341 340 340 341 341 342 342 342 342 341 341 341 341 341 341 341 340 339 340 338 335 331
358 358 358 357 357 358 358 359 360 360 361 360 360 360 361 361 362 363 363 362 361 360 361 361 361 361 361 361 361 361 361 361 361 361 361 360 360 359 358 357 357 357 357 356 355 355 354 353 352 351 350 351 350 349 347 346 344 342 342 341 341 341 341 341 340 341 341 341 341 342 342 342 341 341 341 339 339 339 340 340 339 337 335 334 330
Wind_Speed
12 11 10 9 8 8 7 6 7 6 6 6 6 6 5 4 3 3 4 3 4 6 4 5 7 8 8 8 9 11 13 12 9 9 9 9 11 11 11 11 11 10 9 9 8 8 8 8 9 9 8 8 9 9 8 8 8 8 7 7 7 7 7 6 6 6 6 6 6 5 4 3 2 2 1 1 0 1 1 2 3 3 3 3 4
12 12 11 11 10 9 8 7 7 6 5 5 6 5 4 4 3 2 3 3 4 5 4 4 7 8 7 6 10 14 14 12 9 10 10 10 11 12 12 11 11 10 9 9 8 8 8 8 9 9 9 9 9 9 9 9 9 9 8 8 7 7 7 7 6 6 5 5 5 4 4 3 2 2 2 2 2 2 3 3 4 4 4 4 4
12 13 13 12 11 10 9 8 7 6 5 4 5 4 4 4 3 1 2 4 4 4 3 3 6 8 7 6 10 15 15 12 10 11 11 11 11 12 12 11 11 10 9 9 8 8 9 9 9 9 9 9 9 9 9 10 10 10 10 9 8 7 7 7 6 6 6 5 5 5 4 4 3 3 3 3 4 4 4 4 5 6 6 6 6
14 14 14 13 12 11 9 7 6 6 5 4 4 4 4 4 3 2 2 4 5 5 4 4 6 8 8 8 10 14 15 12 12 13 13 12 11 12 12 11 10 10 9 9 9 9 10 10 9 9 9 9 9 9 9 9 9 10 11 10 9 8 8 7 7 6 6 6 5 5 5 4 4 4 4 5 6 6 6 5 6 7 7 7 7
15 16 15 13 11 11 10 7 6 6 6 5 4 3 4 3 3 3 3 4 5 6 5 4 6 7 9 11 12 15 15 13 13 14 14 12 11 11 11 11 10 10 9 9 10 10 11 11 11 10 10 10 10 9 9 9 9 10 11 11 10 9 9 8 8 7 7 6 6 5 5 5 5 5 5 6 6 7 6 6 6 7 6 6 6
16 16 15 14 11 11 10 8 7 6 6 5 4 3 4 4 3 3 3 3 6 6 5 3 3 5 8 12 15 17 17 14 14 14 14 12 11 11 10 10 9 9 10 10 10 10 11 11 12 11 11 10 10 10 10 10 10 9 10 11 10 10 9 9 9 8 7 7 7 6 6 6 6 5 5 5 6 6 6 6 6 6 6 6 6
15 16 15 14 11 11 10 9 8 8 7 5 4 4 4 4 3 2 3 4 5 5 3 1 3 2 7 12 15 19 18 15 14 14 13 12 11 10 10 9 9 9 9 10 10 10 11 11 12 12 12 11 11 11 11 11 10 10 10 11 11 10 10 10 10 9 9 8 8 7 7 6 6 6 6 6 6 6 6 6 6 7 6 7 7
14 15 15 13 11 11 11 10 9 8 7 5 5 5 5 4 0 1 2 3 3 3 3 2 2 7 13 14 17 20 19 15 14 13 12 13 11 10 10 9 9 8 8 8 9 10 11 11 12 12 12 12 12 12 12 11 11 11 10 10 10 10 10 10 10 10 10 9 9 8 8 8 7 7 7 7 7 7 7 7 8 8 8 8 8
15 15 15 13 12 11 11 10 9 8 8 6 5 5 6 4 0 0 2 2 1 2 4 3 4 14 17 17 19 20 18 15 13 12 13 13 11 10 9 9 9 8 7 7 8 9 10 11 12 12 12 12 12 12 12 12 11 11 11 10 11 11 11 11 11 11 11 10 9 9 9 8 8 8 7 7 7 8 8 8 9 9 9 10 10
18 18 16 14 12 11 11 10 9 9 8 6 6 6 6 4 2 2 4 3 1 2 1 4 11 18 19 19 20 19 17 14 12 12 12 12 11 10 9 9 9 8 7 7 7 8 10 11 11 11 12 12 13 12 12 12 12 12 11 11 11 11 11 11 11 11 11 10 9 9 9 9 9 9 8 8 8 8 8 8 9 9 10 10 10
21 20 18 16 13 12 12 10 10 9 8 7 6 7 6 4 3 3 5 4 3 5 10 13 17 18 18 18 17 17 16 13 11 11 11 11 11 10 9 9 9 8 8 7 6 6 8 10 11 11 11 12 12 12 12 12 12 12 11 10 10 10 10 10 10 10 10 10 9 8 9 9 9 8 8 8 8 8 8 9 9 10 9 9 10
22 21 19 18 15 13 12 11 9 9 8 8 7 7 7 5 4 4 7 5 3 9 15 17 18 17 16 16 15 15 14 13 11 10 10 11 11 10 10 10 10 9 8 7 6 6 6 9 10 11 11 11 11 11 11 12 11 11 11 10 9 10 10 9 9 9 9 8 8 8 8 9 8 8 8 8 8 9 9 9 10 10 9 9 8
20 21 19 20 17 13 13 12 10 9 8 7 7 8 8 6 5 5 8 8 4 9 13 15 17 14 12 12 13 13 12 11 11 10 10 10 11 11 11 10 10 10 8 7 7 6 6 7 8 9 10 11 11 11 11 11 10 10 10 9 8 9 9 9 8 8 8 8 9 9 8 9 9 8 8 8 8 8 8 9 9 9 8 7 5
18 20 19 21 19 15 14 13 11 10 8 7 8 9 9 7 7 7 9 8 6 7 9 10 12 12 11 9 7 9 10 10 11 11 11 11 11 12 12 11 11 10 9 8 7 7 7 7 7 8 8 9 10 10 10 10 10 10 9 8 8 8 8 8 8 8 7 7 8 8 7 8 8 8 8 8 8 8 8 8 8 7 6 4 3
17 18 19 22 21 17 16 14 12 11 10 10 10 11 10 8 8 9 9 8 6 6 7 6 10 13 11 5 2 4 5 7 11 12 12 13 12 12 12 12 12 11 10 9 8 8 8 7 8 7 7 8 8 9 9 9 8 8 8 8 8 8 7 7 7 7 6 6 7 7 6 7 7 8 7 6 7 7 6 6 5 4 3 2 2
18 18 19 21 23 21 18 15 14 13 12 12 13 12 11 9 9 11 11 10 7 7 6 5 10 12 7 2 2 3 1 5 9 9 12 15 14 13 13 13 13 13 12 11 8 8 8 8 8 7 7 7 7 7 7 7 6 6 7 7 8 8 8 7 6 6 6 6 6 7 7 7 7 6 5 5 5 4 3 2 1 1 2 3 3
20 18 18 20 22 22 20 17 16 15 14 13 14 12 11 10 11 12 14 12 9 8 7 6 9 12 6 3 3 2 2 5 5 4 10 16 16 15 14 14 15 15 14 12 10 8 8 8 8 8 7 7 7 6 6 6 6 6 7 7 8 8 8 8 8 8 8 7 7 7 7 7 6 5 4 3 2 2 1 1 0 1 2 3 4
21 19 18 19 22 23 22 19 17 17 16 14 14 13 12 12 12 14 15 14 11 9 9 8 9 11 8 4 3 2 3 5 4 2 4 11 14 16 16 15 17 18 15 14 12 10 8 8 8 9 9 8 8 7 6 7 6 5 7 7 7 6 7 7 8 9 9 8 7 7 6 5 4 4 3 3 2 2 2 1 1 1 1 2 3
23 21 19 19 21 23 23 22 20 19 17 15 15 15 13 12 12 14 15 14 12 11 12 12 10 10 8 5 3 2 5 8 6 3 3 5 9 13 14 13 15 18 17 16 15 13 10 8 8 10 10 9 8 8 7 7 6 6 6 6 6 6 7 6 7 8 9 8 7 6 5 5 4 4 3 3 2 2 1 1 1 1 2 3 3
25 22 19 20 21 22 23 23 22 20 18 17 16 15 14 13 13 14 15 15 13 12 14 14 13 12 10 7 4 4 7 10 11 9 5 2 4 7 10 12 12 15 17 17 17 15 11 10 10 10 9 9 9 8 8 8 8 7 6 6 6 7 7 7 7 8 8 8 7 6 6 5 5 4 4 3 2 2 1 1 1 2 3 3 4
25 23 20 20 22 22 22 22 22 20 19 18 17 15 14 14 14 15 17 17 14 14 15 16 14 14 13 10 7 5 7 9 13 12 7 4 3 4 8 10 10 13 16 17 18 16 13 11 11 11 10 9 9 9 9 8 8 8 7 6 7 7 7 8 8 8 8 7 7 6 6 5 5 5 4 3 3 2 1 1 1 2 3 4 5
27 24 22 21 21 22 23 23 22 21 20 19 18 17 15 15 15 15 17 18 16 15 16 16 13 13 15 14 11 9 7 7 11 11 8 6 4 5 9 10 8 11 15 18 19 17 15 14 12 13 13 11 10 10 9 8 9 9 8 7 7 7 7 8 8 8 8 8 7 7 6 6 5 5 4 4 3 3 2 1 2 2 3 5 6
28 26 24 22 21 22 23 23 22 21 21 20 19 18 17 16 16 16 17 18 16 15 16 16 14 12 16 17 15 13 10 8 11 12 9 5 4 5 10 12 11 11 13 17 20 20 19 17 16 15 14 13 12 10 9 9 10 10 9 9 8 8 8 8 8 8 8 8 7 7 6 6 6 5 5 5 4 4 4 3 4 4 5 7 8
29 28 26 25 23 23 23 23 23 22 22 22 20 19 18 17 17 17 18 18 17 17 16 17 16 14 16 18 16 14 14 12 12 13 12 9 7 7 8 9 10 13 13 14 18 22 23 21 19 17 15 14 14 12 10 10 11 10 10 10 9 9 9 9 9 9 8 8 8 8 8 7 7 7 6 6 6 6 6 5 6 6 8 9 10
31 30 29 27 25 25 24 25 24 23 22 22 21 20 19 18 18 19 20 19 18 18 18 18 18 16 16 17 16 15 16 15 13 12 13 12 10 8 8 6 8 13 14 13 15 20 24 25 22 19 18 17 16 14 13 13 12 12 11 11 10 10 10 10 10 10 10 10 10 9 9 9 8 8 8 8 8 8 8 8 8 9 10 11 12
32 32 31 28 27 27 26 26 26 24 22 22 22 21 20 19 19 20 21 21 19 19 19 18 19 18 17 17 17 17 17 16 15 13 14 14 11 10 8 4 5 9 9 13 15 16 22 26 25 23 21 20 18 16 16 15 14 14 13 12 12 11 11 11 12 12 12 11 11 11 10 11 10 10 10 10 10 10 10 10 10 11 12 12 12
33 33 31 30 28 28 28 27 27 26 24 23 23 22 21 20 20 21 22 22 21 20 19 18 19 20 18 18 18 18 18 19 18 16 16 15 13 14 12 5 2 3 4 8 14 17 21 23 24 26 24 22 20 19 18 17 16 16 16 14 13 13 13 13 13 13 13 12 12 12 12 12 12 12 12 12 12 12 12 12 12 12 12 12 11
34 33 32 30 29 29 29 29 28 27 26 25 24 24 23 22 21 22 23 23 22 22 20 19 19 20 20 19 19 19 20 21 20 19 18 18 15 16 16 11 6 2 3 4 7 14 21 21 21 24 26 24 22 21 21 20 19 19 19 18 16 16 15 15 15 14 14 13 13 13 13 13 14 14 14 14 14 13 13 14 14 13 12 11 10
34 33 32 31 30 29 30 30 30 29 28 26 26 25 25 24 23 23 24 25 24 23 22 20 19 20 21 22 21 19 19 21 22 20 19 20 19 18 18 17 13 7 3 4 6 11 18 21 21 22 24 24 24 23 23 23 22 21 21 21 19 17 17 17 17 16 15 15 15 15 15 15 15 15 15 16 15 15 14 14 14 12 11 11 10
34 33 32 31 31 31 30 31 31 31 30 29 27 27 27 27 26 25 25 25 26 25 24 23 21 20 21 23 24 22 20 22 23 22 21 20 21 21 20 19 18 14 10 6 7 14 19 21 23 22 22 24 24 25 26 25 24 23 23 23 21 19 18 18 18 18 17 16 16 16 17 16 16 16 16 16 16 15 15 14 13 12 11 10 10
34 34 33 32 32 32 32 31 31 32 32 30 29 28 29 29 29 28 27 26 27 27 26 25 24 23 22 23 26 26 24 24 25 24 23 22 21 21 21 21 22 21 19 12 6 13 20 21 23 23 21 22 23 25 27 27 26 25 25 25 23 21 19 19 19 19 19 18 17 17 17 17 17 16 16 15 15 15 14 13 12 11 11 10 10
35 34 34 34 33 33 33 32 32 32 33 32 31 30 30 31 31 30 30 29 29 29 28 27 26 26 26 25 26 28 27 27 28 27 26 25 23 21 20 23 24 23 24 20 10 12 20 21 20 21 21 21 23 25 27 28 28 28 28 27 25 23 21 21 21 20 20 19 18 17 18 18 18 17 15 15 14 14 13 13 12 11 11 10 10
35 34 34 35 34 34 34 33 33 33 33 34 33 33 33 33 33 32 32 31 30 31 30 30 29 28 28 28 28 28 28 30 31 31 30 28 26 24 21 22 26 26 25 25 18 15 20 21 20 20 20 21 24 26 27 29 30 30 30 29 27 25 24 24 22 22 21 21 20 19 18 18 18 17 16 15 15 14 13 13 12 11 11 10 10
37 36 36 35 35 35 35 35 34 34 34 35 35 35 35 36 35 34 33 33 33 33 32 32 32 31 30 31 31 30 29 30 32 33 33 31 29 27 24 23 27 27 26 27 24 19 20 24 24 23 22 22 24 25 27 29 31 31 32 32 30 28 27 25 24 23 23 22 21 21 21 20 19 18 18 17 15 14 14 13 12 12 11 11 11
37 38 37 37 36 36 36 36 36 36 36 36 36 37 37 37 37 36 36 35 35 35 35 35 34 33 33 33 34 33 32 31 32 33 34 34 33 32 29 26 28 29 28 29 27 23 22 26 27 26 25 25 25 25 25 27 29 31 33 33 32 30 28 27 26 25 24 23 22 22 22 22 21 19 18 17 16 15 15 14 14 13 13 12 12
36 37 38 37 37 37 36 37 37 38 38 38 38 38 39 39 38 38 37 37 37 37 37 38 37 36 36 36 36 35 34 34 34 33 33 34 35 35 34 31 30 31 31 30 30 29 25 25 27 28 27 27 27 26 24 25 28 32 34 34 33 32 30 28 27 26 25 23 22 22 22 22 22 21 18 18 17 17 17 17 16 15 14 13 13
35 36 37 37 38 38 39 39 39 39 40 40 39 39 40 39 39 39 39 39 39 39 39 39 39 38 38 39 39 37 35 34 35 35 35 35 35 36 36 36 35 33 32 32 32 32 29 27 28 28 27 26 27 26 25 26 29 32 34 34 34 33 32 30 29 28 27 25 24 23 22 22 22 20 19 19 20 20 19 19 18 17 15 14 13
36 36 37 38 39 40 41 42 41 41 41 40 40 40 40 39 39 39 39 40 40 40 40 40 40 39 39 40 40 38 36 36 37 37 36 36 36 37 37 38 38 36 34 33 33 32 31 31 30 28 28 28 27 27 26 27 29 32 34 34 35 35 34 33 32 31 30 29 28 25 23 22 21 21 20 20 21 21 21 21 20 19 17 15 14
38 38 38 39 40 40 42 42 42 42 42 41 41 41 40 40 40 40 40 40 41 41 41 41 40 40 40 40 40 39 38 38 39 39 38 38 38 38 39 39 39 38 36 34 33 32 32 32 30 29 29 30 30 30 29 27 28 32 33 33 34 36 36 36 35 34 32 31 30 27 25 22 21 21 21 21 21 22 22 22 21 20 18 17 16
41 40 40 40 40 41 42 42 42 42 41 41 41 40 41 41 40 40 40 40 40 40 40 41 41 40 40 40 40 39 39 40 41 41 40 40 38 38 39 39 38 37 36 35 33 31 31 30 30 30 29 29 30 31 30 26 27 31 34 33 33 34 36 37 37 36 34 33 31 29 27 25 23 23 23 23 23 23 23 23 22 21 20 18 17
41 41 41 40 40 40 41 42 42 42 41 41 42 42 42 42 41 41 41 40 40 39 39 40 40 40 40 40 40 41 41 41 42 42 42 42 40 39 40 39 37 36 36 34 32 31 30 29 29 29 27 27 29 30 29 30 31 33 34 32 33 33 33 35 37 37 35 33 32 31 30 28 27 26 26 26 25 24 24 25 24 22 21 20 18
41 41 41 40 40 41 41 41 42 42 42 42 43 45 45 44 43 41 40 40 39 38 38 38 38 39 40 40 41 42 42 43 43 43 43 43 43 43 42 41 38 37 35 34 32 32 30 28 29 29 25 26 31 31 32 35 36 34 31 30 32 32 28 26 30 34 36 34 33 33 33 31 29 29 28 28 27 26 25 26 25 23 21 20 19
40 40 40 40 41 41 41 42 42 43 43 44 45 46 47 46 44 41 39 40 39 38 38 37 38 39 40 40 41 41 41 43 44 45 45 45 45 46 46 44 43 41 38 36 35 33 31 30 30 29 27 29 33 34 34 35 33 32 33 32 31 30 25 21 21 26 32 35 34 34 34 33 32 32 31 31 30 29 28 27 26 23 21 19 18
39 39 40 41 41 41 41 41 42 43 45 46 46 46 47 47 46 43 41 39 39 39 39 38 38 38 37 38 39 39 40 41 43 44 45 46 47 47 48 48 47 46 44 43 40 37 34 32 32 31 31 33 34 35 35 34 33 33 34 33 32 30 28 25 24 26 30 33 34 34 34 34 33 33 34 33 32 31 30 29 26 23 21 19 17
38 38 40 41 42 41 41 41 42 43 45 46 47 47 47 47 47 45 43 40 39 39 39 38 37 37 37 37 36 38 39 40 41 42 43 45 46 47 49 49 49 49 49 50 49 45 41 37 34 35 37 36 36 38 39 36 34 33 32 32 33 32 30 30 32 35 34 31 31 32 32 34 34 34 35 35 33 32 32 29 27 24 22 20 18
38 39 40 41 42 42 42 42 42 43 44 46 46 46 47 47 46 46 45 43 40 39 38 38 37 37 38 37 37 37 38 37 38 39 40 42 43 44 47 48 50 51 51 53 54 51 48 44 41 42 43 41 40 44 43 37 34 34 34 35 36 36 36 38 40 40 36 32 30 28 27 31 34 34 36 36 34 33 33 30 28 26 23 21 21
38 40 40 41 42 42 42 42 42 42 44 45 44 45 47 47 46 46 45 44 41 39 39 38 38 39 39 38 38 38 38 38 38 38 39 40 41 42 44 45 48 49 51 54 55 53 53 52 51 50 49 46 45 47 45 39 37 38 38 39 40 39 37 37 35 34 32 30 30 27 23 27 31 33 35 36 34 33 33 31 29 27 24 23 22
37 38 39 39 40 40 40 41 41 42 43 43 43 45 45 45 45 45 44 44 43 41 41 39 38 39 39 38 39 39 40 40 39 39 39 38 39 40 41 43 44 46 50 55 54 52 54 55 55 56 55 52 49 49 47 42 40 40 38 38 37 32 29 27 27 28 29 29 32 31 26 25 28 31 34 34 33 33 32 31 29 27 25 24 23
37 37 38 38 38 39 39 39 40 41 42 41 41 42 43 42 42 43 44 44 43 43 42 41 40 39 39 39 40 40 41 42 40 40 39 39 40 40 40 41 40 43 50 51 47 47 52 54 56 57 58 57 54 51 49 46 44 41 36 34 32 28 25 22 20 23 27 30 33 33 29 27 28 30 31 31 32 32 31 30 30 28 26 26 25
38 38 38 37 37 37 37 38 39 39 39 38 37 37 38 38 39 42 43 43 42 42 42 41 40 40 40 41 41 41 42 42 41 41 40 39 41 41 40 39 38 43 49 44 36 39 45 48 52 55 56 57 57 55 53 50 48 44 40 38 34 29 27 24 21 21 24 30 34 33 30 29 29 29 28 24 24 30 31 29 28 28 27 26 26
38 38 37 36 36 36 37 37 37 37 36 35 34 34 34 35 37 40 42 42 40 40 40 39 39 40 40 40 40 41 43 44 43 42 41 40 42 43 42 40 38 44 47 39 33 37 40 40 45 49 52 55 56 56 57 54 51 48 47 46 41 34 31 29 27 19 14 22 33 34 31 30 29 29 28 18 11 19 28 29 27 27 27 27 28
Wind_Direction
193 187 190 191 187 186 182 177 169 165 164 158 162 163 160 167 172 183 186 195 206 198 187 182 183 183 193 201 201 195 192 200 204 194 191 180 172 175 175 171 171 175 177 183 186 186 186 185 185 188 190 193 195 189 185 186 183 183 181 179 177 174 175 176 177 178 173 171 168 168 170 175 176 172 191 222 278 309 328 325 331 334 334 334 336
198 194 195 195 192 194 188 182 175 171 165 155 157 153 149 171 186 186 189 206 208 206 207 197 187 182 191 207 207 200 196 200 200 195 188 174 171 173 177 177 173 177 182 186 190 189 188 188 189 192 195 198 201 196 192 195 194 192 190 189 190 188 187 185 184 185 182 180 178 180 189 199 207 213 230 249 266 280 293 304 306 306 312 316 320
207 201 198 195 193 193 189 185 180 173 163 159 162 148 145 172 194 208 217 219 214 222 230 208 191 185 192 198 200 197 196 198 194 191 182 169 169 170 174 179 179 182 186 190 193 194 195 196 195 196 199 199 202 200 196 200 201 200 199 196 196 197 200 196 191 191 191 192 192 195 206 215 222 230 243 256 266 272 275 286 293 296 304 308 309
218 210 202 195 193 192 191 189 184 177 167 164 166 156 164 188 214 216 213 217 220 224 215 199 194 192 198 196 194 193 191 192 189 184 175 166 166 165 168 175 180 186 190 196 200 202 203 202 201 201 203 202 202 201 199 202 205 205 205 203 200 200 206 206 201 200 200 201 204 208 218 231 239 248 259 267 273 277 276 280 289 297 305 306 306
216 211 203 196 194 193 195 193 185 183 176 173 175 177 187 206 229 224 209 199 194 197 198 206 212 218 217 207 197 189 185 186 185 181 173 168 167 162 163 170 176 183 191 200 205 209 210 209 206 204 206 206 205 205 204 206 209 208 207 208 206 204 207 209 207 207 209 211 216 221 231 244 253 260 268 274 279 285 287 288 295 302 306 307 309
207 204 198 195 197 197 200 194 186 187 183 179 179 185 194 207 224 220 206 181 169 181 201 221 263 264 228 213 203 189 182 182 181 179 176 174 171 166 164 169 174 180 190 198 205 211 215 216 213 209 210 210 209 208 210 211 213 214 210 209 210 211 213 213 213 213 214 218 221 226 233 244 253 260 268 273 277 284 289 291 294 299 300 302 304
198 196 191 194 198 199 203 198 191 189 185 181 177 181 190 205 215 187 174 171 176 189 204 270 329 248 185 186 190 185 181 180 178 176 178 178 176 174 173 176 179 182 192 198 202 207 212 218 217 214 213 213 213 212 214 216 218 220 215 212 212 216 220 219 220 220 219 221 224 229 234 241 251 260 268 271 275 281 286 289 291 290 289 290 293
186 189 190 193 194 198 200 198 197 193 190 186 180 183 191 203 253 123 168 173 198 218 222 308 25 151 157 157 166 175 178 177 174 173 179 182 179 181 183 186 186 186 196 202 203 203 206 212 215 217 216 215 217 217 218 220 222 226 222 217 217 219 224 224 224 226 226 227 229 233 237 242 249 258 266 269 274 279 282 286 288 288 287 285 283
183 183 188 191 194 201 199 197 200 196 195 189 179 182 189 196 158 240 215 184 229 282 255 278 133 147 154 153 158 168 172 169 168 172 178 182 183 187 188 191 193 191 198 205 208 205 204 208 210 213 217 217 219 220 222 223 225 231 230 224 224 224 227 228 225 227 230 232 234 238 241 245 250 257 261 267 273 276 277 280 284 289 289 283 279
192 186 190 192 195 202 203 201 202 200 200 194 186 186 188 186 172 211 212 182 39 10 189 169 145 143 148 153 159 165 165 161 164 171 177 179 181 186 187 190 194 192 196 200 208 212 209 209 209 210 214 216 219 220 223 226 227 234 236 232 230 230 231 233 232 231 233 235 237 241 245 247 252 258 261 265 269 272 275 279 285 291 290 285 281
203 197 197 198 194 196 204 205 203 206 204 200 194 193 198 191 188 216 200 174 64 95 127 138 141 139 139 147 155 160 162 160 164 171 177 179 178 179 182 188 192 189 192 199 208 221 217 213 211 210 212 214 218 219 221 226 229 233 237 237 237 238 237 236 236 238 240 242 244 247 252 253 254 260 263 266 271 275 278 284 290 294 296 294 291
208 206 203 201 196 194 202 203 203 209 208 206 197 193 204 203 205 216 192 178 115 127 133 133 138 136 134 141 149 155 161 165 166 169 175 179 179 179 182 185 191 191 193 203 216 230 229 221 218 215 216 217 219 220 222 226 228 230 235 238 241 245 246 240 237 242 244 247 251 252 257 260 261 264 266 270 275 277 279 285 292 295 298 299 297
208 210 203 199 198 194 198 201 203 207 210 210 199 194 204 208 210 208 191 186 161 147 146 139 136 134 135 143 149 155 167 176 176 174 177 180 181 185 187 188 194 199 200 207 220 230 231 223 221 222 223 224 223 222 223 226 226 227 232 236 239 245 249 245 242 245 248 255 255 251 256 260 261 265 268 272 275 277 281 288 294 296 296 298 303
207 209 203 197 198 196 197 204 208 207 205 204 199 198 202 207 208 201 192 188 175 166 170 160 147 146 146 141 143 156 169 183 186 184 181 181 184 186 189 192 197 204 207 209 217 225 227 221 218 223 225 225 223 221 223 227 226 225 227 227 232 241 244 243 243 243 246 255 252 246 252 254 254 260 265 269 272 276 281 285 291 294 293 297 311
207 210 205 197 198 200 200 207 214 212 208 201 201 202 201 207 207 197 190 189 195 194 196 189 161 151 146 141 151 146 156 188 194 198 195 186 185 187 190 194 198 205 210 211 214 221 226 222 216 220 222 221 222 222 224 227 226 230 232 224 222 230 235 237 240 238 238 245 242 238 241 245 247 251 257 263 268 271 272 274 281 292 302 321 349
209 210 209 202 199 202 205 209 213 216 217 208 205 207 204 205 205 197 191 192 203 201 204 202 168 157 142 122 138 122 137 217 205 209 208 197 189 189 193 196 198 204 209 207 207 217 225 223 217 217 218 214 215 218 218 222 222 227 234 226 219 222 221 223 230 232 229 230 232 231 233 239 240 241 246 254 255 254 253 257 283 333 8 22 25
211 212 212 207 202 203 207 210 210 217 223 217 213 216 211 207 206 198 195 196 200 195 198 206 187 181 172 128 120 136 217 215 194 192 205 204 202 199 201 202 199 201 204 202 201 211 218 220 220 217 216 209 206 209 207 213 215 212 217 218 219 218 209 209 216 217 215 217 223 227 228 230 227 225 225 219 206 189 173 153 54 21 18 19 17
212 213 215 212 206 204 207 210 214 218 223 222 220 221 217 212 207 200 198 198 202 202 194 189 190 193 190 164 149 191 191 173 162 129 180 196 203 204 207 208 204 203 203 200 202 209 208 214 219 212 209 206 205 209 207 210 214 205 208 210 212 211 206 210 206 199 199 204 210 212 211 207 201 198 193 179 164 153 143 136 113 50 21 14 9
213 213 215 215 209 206 207 211 218 222 224 223 220 222 220 215 209 203 200 198 205 211 192 181 183 188 189 175 151 170 177 166 162 147 133 173 190 192 193 196 200 205 207 203 204 208 204 208 213 204 202 203 203 206 206 212 219 212 206 203 203 203 203 208 198 187 189 191 192 193 190 187 188 187 182 178 170 159 145 125 94 44 29 22 18
213 214 215 215 212 209 209 212 218 223 225 223 221 222 220 215 210 204 200 199 209 214 197 188 190 190 184 173 152 147 170 183 184 168 139 150 196 191 185 182 189 202 209 209 209 209 205 207 208 200 196 199 200 199 201 211 218 214 206 198 201 202 198 199 195 188 185 184 183 186 186 184 184 183 179 178 170 155 127 86 51 29 19 13 8
213 216 216 215 213 212 212 214 217 221 224 224 222 223 222 215 209 204 201 202 208 213 208 202 203 203 192 179 172 157 152 174 185 175 154 154 196 227 204 192 195 205 211 214 213 212 213 215 212 204 197 195 195 192 191 198 205 206 203 198 200 202 198 195 194 191 186 185 186 187 187 184 182 180 177 174 166 154 134 84 19 1 349 346 341
212 217 219 217 214 214 215 216 218 221 222 224 223 224 223 216 210 207 203 203 206 212 217 212 210 213 202 188 183 177 158 157 173 174 165 163 179 215 211 206 210 213 212 215 217 216 217 223 219 211 206 199 194 194 192 191 196 200 199 197 198 200 200 197 197 197 192 192 194 193 193 190 188 187 185 187 186 191 202 230 275 298 307 310 311
212 216 218 218 215 214 216 218 219 222 224 225 225 225 224 215 210 211 207 207 209 214 219 213 210 216 206 197 193 188 185 184 181 180 175 168 170 194 209 215 222 226 219 218 222 221 220 225 224 217 211 206 203 202 198 192 194 199 197 196 197 198 199 200 202 204 201 202 203 203 204 203 205 205 205 209 213 221 233 248 267 281 293 299 301
212 215 217 216 215 214 216 219 221 224 225 227 228 228 228 219 211 210 210 211 212 215 217 212 210 211 202 199 202 202 201 199 194 193 195 195 191 197 207 211 225 239 233 223 225 225 223 225 226 222 216 214 213 210 207 203 199 199 199 201 202 202 204 204 206 209 210 212 212 213 217 217 220 223 224 230 234 242 253 263 277 287 294 298 298
211 214 217 216 215 213 215 217 220 224 226 227 229 229 229 225 216 212 212 213 215 219 222 216 211 210 204 200 205 210 207 201 200 204 207 208 207 212 214 209 226 238 235 226 225 225 224 225 228 226 222 221 221 220 220 217 210 206 208 208 207 207 210 210 212 215 215 218 220 222 226 228 231 236 239 244 249 257 265 272 280 286 290 292 290
212 215 218 216 214 214 214 217 220 224 225 227 229 229 229 228 222 217 215 216 218 223 228 225 218 215 213 210 208 212 211 204 204 208 209 212 218 220 214 207 231 235 225 218 217 217 220 224 227 226 225 226 228 229 229 228 222 218 218 216 213 213 216 217 220 221 221 224 227 230 234 237 240 243 246 250 254 259 265 271 277 282 286 287 286
217 218 219 217 216 215 216 219 221 224 226 227 228 228 228 228 226 222 221 221 222 226 230 228 224 220 219 218 214 215 215 211 212 214 214 219 229 230 218 191 201 258 241 212 212 216 219 223 226 225 226 229 232 234 235 236 233 227 225 225 223 223 225 225 225 226 227 228 231 235 239 242 244 247 249 252 256 261 266 272 277 283 285 283 281
219 219 219 218 218 217 218 220 222 224 227 228 228 228 226 226 227 226 226 225 225 229 229 227 227 224 222 222 220 218 216 214 216 219 219 223 233 239 232 213 187 205 275 240 226 227 224 223 225 227 229 232 236 238 238 239 237 231 230 232 233 234 234 233 231 231 233 233 236 238 241 244 247 249 252 254 259 263 269 274 278 281 282 280 278
219 220 220 220 220 219 219 220 222 224 227 228 229 228 227 227 228 229 228 228 228 231 230 228 229 227 224 224 224 223 218 214 216 218 221 227 233 241 243 232 213 190 192 233 241 232 223 221 224 229 232 234 238 240 238 241 241 235 233 236 239 240 240 239 237 236 237 238 240 241 243 246 248 251 253 256 260 265 269 273 276 276 276 275 273
218 220 221 221 221 220 220 220 221 223 226 228 228 227 226 227 230 231 231 230 230 231 232 231 231 230 228 226 225 226 221 215 217 219 224 232 238 242 244 241 232 217 200 199 236 236 227 224 229 232 235 236 238 241 241 245 246 240 238 241 243 245 245 244 242 240 241 242 244 245 245 246 248 251 253 256 259 262 266 268 270 271 271 270 269
217 219 220 222 221 220 220 221 222 222 224 227 228 226 224 226 230 232 232 232 231 232 232 233 233 232 231 229 227 227 225 220 221 223 228 234 239 243 244 240 236 231 222 208 223 242 232 229 234 237 239 240 240 241 243 247 247 243 242 245 248 250 250 248 245 244 244 245 246 247 248 248 249 251 253 256 257 258 260 264 266 268 269 268 266
216 218 220 221 221 220 220 221 222 222 223 225 227 226 225 226 229 230 232 231 231 232 233 234 234 233 233 232 231 230 229 226 225 227 231 233 236 241 243 239 235 235 230 219 217 245 240 236 240 241 241 244 245 244 244 246 246 244 243 246 249 251 251 250 249 247 246 247 248 249 251 250 249 250 253 255 255 255 256 259 262 266 269 269 266
215 216 218 220 220 220 220 221 223 223 223 223 224 226 225 226 228 230 231 230 231 232 233 233 234 234 234 234 234 234 232 230 229 230 232 234 237 240 242 239 235 233 228 221 221 240 247 244 242 242 241 243 245 246 246 245 244 241 241 244 246 248 250 252 253 251 249 249 249 251 252 251 249 251 255 256 256 255 255 256 258 264 270 273 271
214 215 217 218 220 220 220 222 223 224 224 224 223 223 224 225 226 228 228 229 229 230 231 232 233 233 234 235 236 237 235 233 233 232 233 235 237 241 240 237 235 233 230 225 223 230 243 245 244 241 240 240 242 245 246 246 244 241 239 240 242 245 249 253 254 253 252 252 253 254 255 253 251 253 256 257 254 252 252 253 255 260 267 273 275
215 216 217 218 219 220 221 222 223 225 225 225 224 223 223 224 225 226 226 227 228 228 229 231 232 232 232 234 237 238 236 235 235 235 236 237 238 241 241 237 236 236 234 232 230 229 237 245 246 243 240 240 242 244 245 246 246 242 239 240 242 244 248 251 252 252 253 253 254 256 258 256 253 255 255 251 247 248 250 251 253 257 263 271 275
216 217 218 219 219 220 221 223 224 225 226 225 225 224 224 224 225 225 226 226 227 228 229 230 231 231 231 233 237 238 236 235 237 237 237 238 239 241 242 241 239 239 238 237 236 236 239 246 250 249 245 244 244 245 246 246 243 240 240 242 243 245 248 249 249 252 254 254 254 256 257 256 253 253 248 242 242 246 248 250 252 255 261 269 271
217 217 218 218 219 219 221 223 224 225 226 225 225 225 225 225 225 225 226 227 228 229 230 231 231 231 231 233 236 237 234 234 237 238 238 238 239 241 242 243 242 242 242 240 240 240 241 244 250 252 251 249 247 247 246 244 241 238 238 241 243 245 247 247 248 250 252 253 253 253 255 255 253 249 243 240 244 246 248 250 251 253 260 266 264
217 218 218 218 218 220 222 223 224 225 226 226 225 226 226 225 225 226 227 228 229 230 231 232 233 232 232 234 236 236 233 233 236 238 239 238 238 239 241 242 243 243 243 242 242 241 241 244 249 251 251 250 249 248 245 241 240 238 237 239 242 244 246 246 246 247 249 251 251 250 251 252 250 245 242 242 243 243 246 248 249 253 258 261 260
217 217 218 218 218 220 222 224 224 226 226 226 226 227 226 226 226 226 227 228 229 231 232 233 234 234 234 235 236 235 234 235 237 238 239 239 238 239 240 241 241 241 241 242 242 240 240 243 247 249 249 249 249 249 248 244 241 241 240 238 239 241 241 243 244 245 246 248 249 249 248 248 248 246 245 245 243 243 245 246 249 253 256 258 258
218 218 218 219 219 220 223 224 225 226 226 226 226 227 227 227 227 227 227 228 228 230 232 234 235 235 236 237 237 238 237 237 238 239 239 239 239 239 240 240 239 239 240 240 239 238 238 241 244 247 248 247 246 247 248 243 237 238 238 235 237 239 239 240 242 243 244 245 247 248 247 244 242 242 244 245 244 242 243 245 247 251 253 255 256
218 219 219 220 220 220 222 224 226 227 227 227 227 227 227 227 227 228 229 229 229 229 231 233 235 236 236 237 239 240 241 241 241 242 242 242 240 240 242 241 238 238 238 239 238 237 236 238 242 244 245 245 243 241 240 237 234 236 237 235 237 240 240 240 241 241 242 244 245 246 246 244 241 241 243 245 244 241 240 242 244 247 250 251 252
219 219 220 220 221 221 222 223 225 226 227 228 228 229 229 228 228 228 230 231 231 231 231 233 235 236 237 238 239 241 242 243 244 245 245 245 244 244 245 244 241 238 237 237 237 236 235 235 238 239 239 242 242 238 237 238 238 239 239 235 236 239 239 239 242 242 240 240 242 243 244 244 242 241 242 245 246 242 239 239 241 243 246 248 249
219 219 219 220 221 222 222 223 225 226 227 228 229 230 231 230 229 228 229 232 233 233 233 233 234 236 237 238 240 241 242 244 245 246 247 248 247 247 248 247 245 242 239 238 237 235 234 234 237 237 235 240 244 241 239 241 240 238 237 236 236 236 232 231 240 242 238 236 236 238 240 241 240 241 243 246 247 243 240 241 241 241 243 246 246
219 219 219 220 221 222 222 224 225 226 229 230 230 231 232 232 231 229 230 232 233 234 235 234 236 237 238 240 241 241 242 243 245 246 247 248 249 249 250 249 248 246 245 243 242 238 235 235 237 237 235 239 244 244 241 240 238 236 236 235 234 233 230 229 235 240 241 237 231 232 237 238 238 239 242 245 246 245 244 244 243 242 243 244 240
219 219 220 221 222 222 222 224 226 227 230 232 232 232 233 234 233 231 231 232 234 235 236 237 237 238 240 241 241 242 243 244 245 246 247 248 249 250 251 250 249 248 248 248 247 245 241 240 239 240 240 240 243 246 245 241 236 234 233 233 233 233 231 232 235 240 244 239 227 226 235 238 236 237 240 243 245 245 245 244 242 241 241 239 234
219 220 221 222 223 223 222 224 226 229 231 233 233 233 234 235 234 233 232 233 235 237 238 238 239 240 241 242 242 244 245 245 245 245 246 247 249 250 250 250 249 248 247 248 248 247 245 243 243 245 246 244 244 249 250 245 238 234 232 233 233 233 233 236 240 242 244 240 229 224 232 237 236 235 238 241 243 243 244 244 241 239 238 235 231
220 221 223 223 225 225 224 225 227 230 232 234 234 235 236 236 236 235 233 233 235 238 240 240 240 242 243 243 244 246 247 247 246 245 246 247 247 248 249 249 250 249 248 248 247 246 245 244 244 247 250 248 248 252 253 249 245 242 240 240 239 238 238 241 244 243 243 242 233 223 229 238 235 233 237 241 242 242 243 244 241 239 237 233 230
222 224 225 226 226 227 227 226 227 231 234 234 235 236 237 237 236 235 234 234 236 238 240 241 242 243 244 244 246 247 249 250 249 248 248 248 247 247 248 249 250 250 251 251 249 247 247 247 247 249 251 251 251 252 253 250 249 248 245 244 242 239 238 241 244 242 240 240 233 223 227 240 236 233 237 240 239 240 242 242 240 239 236 232 230
221 223 225 227 228 229 229 228 228 231 234 235 235 236 238 238 236 235 234 234 235 238 240 242 242 244 245 245 247 248 250 251 251 251 250 249 248 248 248 250 251 252 254 254 251 250 250 250 251 252 253 253 252 253 253 251 250 249 242 239 238 232 229 234 239 237 237 238 233 223 224 236 237 234 237 239 238 239 240 241 240 238 235 232 229
220 222 225 227 229 230 231 231 231 232 234 236 236 237 238 237 236 235 234 234 235 238 241 242 243 244 246 246 247 248 250 252 253 253 252 249 248 248 249 251 252 253 256 256 254 253 253 252 253 253 254 255 254 253 253 251 251 248 240 238 237 228 223 229 234 235 237 239 235 224 222 232 235 232 231 233 236 237 237 239 239 236 232 229 227
220 222 224 226 229 230 232 233 233 234 235 236 237 237 237 237 236 236 234 233 235 237 240 243 244 246 247 248 249 249 251 254 254 254 254 251 249 249 250 250 251 254 258 259 257 255 254 251 252 251 251 253 253 252 252 251 249 247 242 242 239 228 223 227 229 228 234 242 237 224 218 227 230 226 222 217 226 237 233 233 236 234 229 226 221